Simultaneous Nadir Overpasses (SNOs) Predictions

Prediction of SNOs between GOES-16 and NOAA-19 Satellite Orbit:

Table of predicted SNOs for the next 14.0 days since TLE Epoch: 6/5/2020
Index Date Time (GOES-16) GOES-16 Lat,Lon NOAA-19 Lat,Lon Distance(km) Time Diff (sec)
1 06/06/2020 23:09:23 -0.02, -75.14 -0.98, -79.30 474.55 80
2 06/07/2020 22:57:42 -0.02, -75.14 -0.31, -76.45 149.05 80
3 06/08/2020 22:48:42 -0.01, -75.15 0.37, -73.60 176.74 80
4 06/11/2020 11:09:32 0.01, -75.18 0.82, -78.52 382.11 80
5 06/12/2020 10:57:51 0.01, -75.19 0.13, -75.67 55.57 80
6 06/13/2020 10:43:31 0.01, -75.20 -0.55, -72.82 271.17 80
7 06/15/2020 23:07:21 -0.01, -75.20 -0.61, -77.83 299.51 80
8 06/16/2020 22:53:00 -0.00, -75.22 0.08, -74.98 27.91 80
9 06/17/2020 22:43:59 -0.00, -75.23 0.71, -72.12 355.03 80




NCC Satellite Simultaneous Nadir Overpasses (SNOs) Prediction Service
